Hourly Data Report for October 21, 2016

All times are specified in Local Standard Time (LST). Add 1 hour to adjust for Daylight Saving Time where and when it is observed.

RANKIN INLET A
NUNAVUT

62°48'38.000" N
92°06'53.000" W
32.30 m
2303405
71083
YRT

Download Data

Hourly Data (October 2016)
Hourly Data Report for October 21, 2016
Temp Definition
°C
Dew Point Temp Definition
°C
Rel Hum Definition
%
Wind Dir Definition
10's deg

Wind Spd Definition
km/h
Visibility Definition
km
Stn Press Definition
kPa
Hmdx Definition


Wind Chill Definition


Weather Definition


TIME
00:00 Legend Double Dagger -2.2 -3.9 88 22 16 24.1 100.88   -7 Mostly Cloudy
01:00 Legend Double Dagger -2.2 -4.1 87 23 16 24.1 100.88   -7 LegendNANA
02:00 Legend Double Dagger -2.2 -3.0 94 24 12 24.1 100.86   -6 LegendNANA
03:00 Legend Double Dagger -2.0 -2.8 94 24 14 9.7 100.85   -7 Freezing Drizzle,Fog
04:00 Legend Double Dagger -2.1 -2.7 96 29 6 9.7 100.84   -4 Freezing Drizzle,Fog
05:00 Legend Double Dagger -2.1 -2.5 97 35 5 3.2 100.82   -4 Snow
06:00 Legend Double Dagger -2.4 -2.8 97 36 5 3.2 100.82   -4 Freezing Drizzle,Snow
07:00 Legend Double Dagger -2.6 -3.0 97 3 10 12.9 100.80   -6 Snow
08:00 Legend Double Dagger -2.6 -3.2 96 5 9 24.1 100.81   -6 Snow
09:00 Legend Double Dagger -2.4 -3.7 91 7 12 24.1 100.83   -7 Snow
10:00 Legend Double Dagger -2.1 -3.7 89 6 10 24.1 100.83   -6 Snow
11:00 Legend Double Dagger -1.7 -3.1 90 6 11 24.1 100.85   -6 LegendNANA
12:00 Legend Double Dagger -1.8 -3.5 88 6 10 24.1 100.88   -5 Cloudy
13:00 Legend Double Dagger -1.4 -3.4 86 4 10 24.1 100.87   -5 LegendNANA
14:00 Legend Double Dagger -1.4 -3.8 84 7 11 24.1 100.86   -5 LegendNANA
15:00 Legend Double Dagger -1.7 -3.6 87 6 13 24.1 100.88   -6 Mostly Cloudy
16:00 Legend Double Dagger -1.6 -3.6 86 6 10 24.1 100.90   -5 LegendNANA
17:00 Legend Double Dagger -1.4 -3.6 85 6 11 24.1 100.90   -5 Snow
18:00 Legend Double Dagger -1.2 -2.8 89 9 13 16.1 100.91   -5 Snow
19:00 Legend Double Dagger -1.2 -2.5 91 8 16 16.1 100.92   -6 Snow
20:00 Legend Double Dagger -1.1 -1.8 95 8 19 16.1 100.93   -6 Snow
21:00 Legend Double Dagger -0.6 -1.2 96 8 24 12.9 100.93   -7 Snow,Blowing Snow
22:00 Legend Double Dagger -0.1 -0.7 96 8 23 12.9 100.94   -6 Snow,Blowing Snow
23:00 Legend Double Dagger 0.3 -0.3 96 8 28 8.1 100.94     Snow,Blowing Snow

Notes on Data Quality.

Legend

  • E = Estimated
  • M = Missing
  • NA = Not Available
  • ‡ = Partner data that is not subject to review by the National Climate Archives
Date modified: